618  
SXUS52 KCHS 190527  
OSOCHS  
 
MARINE OBSERVATIONS  
NATIONAL WEATHER SERVICE CHARLESTON SC  
100 AM EDT TUE MAR 19 2019  
   
..DOWNTOWN CHARLESTON AND HARBOR
 
 
 
CITY SKY/WX TMP DP RH WIND PRES REMARKS  
WATERFRONT PRK N/A 56 39 53 NE14 30.08S  
   
..LAKE MOULTRIE
 
 
 
CITY SKY/WX TMP DP RH WIND PRES REMARKS  
PINOPOLIS N/A 55 32 41 NE14 30.16S  
   
..LAKE AND SUPPLEMENTAL COASTAL OBSERVATIONS
 
 
 
STATION/POSITION TIME TEMP WIND PRES WAVE SWELL  
AIR SEA DIR/SP/G HT/PER HT/PER/DIR  
(UTC) (F) (DEG/KT/KT) (MB) (FT/S) (FT/S/D)  
FORT PULASKI 0454 55 62 10/ 7/ 11 1022.8R  
SAPELO ISLAND 0500 52 10/ 2 1022.0  
WINYAH BAY 0445 53 20/ 7 1023.0S  
LAKE MURRAY 0420 49 20/ 2/ 6 1025.4  
ACE BASIN NERRS 0445 54 20/ 4 1023.0S  
 
   
..C-MAN AND BUOY OBSERVATIONS
 
 
 
STATION/POSITION TIME TEMP WIND PRES WAVE SWELL  
AIR SEA DIR/SP/G HT/PER HT/PER/DIR  
(UTC) (F) (DEG/KT/KT) (MB) (FT/S) (FT/S/D)  
BUOY 41004 0510 72 20/ 23/ 29 1023.0  
BUOY 41008 0450 61 62 280/ 6/ 6 1022.1F 3/ 9 2/ 60/ 9  
FOLLY BEACH CMAN 0500 55 10/ 15/ 17 1024.0R  
PRITCHARDS ISLAN NOT AVBL  
CAPERS NS BUOY 0508 57 60 30/ 21/ 27 1023.3F  
FRIPP NS BUOY 0508 58 61 50/ 17/ 23 1022.5R  
5E ST. MARYS GA 0500 62 N/A 3/ 8  
 
 
STATION/POSITION TIME TEMP WIND PRES WAVE SWELL  
AIR SEA DIR/SP/G HT/PER HT/PER/DIR  
(UTC) (F) (DEG/KT/KT) (MB) (FT/S) (FT/S/D)  
FRYING PAN BUOY 0510 56 70 350/ 27/ 33 1023.6  
BUOY 41025 NOT AVBL  
CAPE LOOKOUT NC 0500 47 10/ 17/ 19 1025.5R  
BUOY 41002 0510 1017.5  
BUOY 41010 0510 70 74 20/ 19/ 23 1019.6  
ST AUGUSTINE FL 0500 61 62 330/ 4/ 5 1022.2R  
 

 
 
 
CLICK HERE TO GO TO PREVIOUS BULLETINS.

The Nexlab SC Page
The Nexlab GA Page Main Text Page